Torna al catalogo

STARLINK-35535

AttivoComunicazioniVLEO
NORAD 66342·PAYLOAD·🇺🇸 United States

Lanciato Nov 6, 2025 da Cape Canaveral Space Force Station

Loading…

Prossimi Passaggi (prossime 24 ore)

TLE

AggiornatoSource: CelesTrak SupGP

Epoca: Sep 14, 2026, 22:56 UTC

1 66342C 25253Z   26257.95604167  .00008538  00000+0  30922-3 0  2577
2 66342  42.9999 223.7193 0001415 261.7991 301.2819 15.27575869    18

Traccia STARLINK-35535 in tempo reale con AllMySat

Download on the App Store